DMSP 5D-2 F13 DEB, 42319

Orbit data source: Space-Track

DMSP 5D-2 F13 DEB, 42319 is space debris in SSO originally from a launch on Fri, 24 Mar 1995 UTC launched from the Air Force Western Test Range (AFWTR). Debris objects in space refer to the collection of defunct objects orbiting the Earth. Examples of debris include non-operational satellites, rocket bodies, and fragments generated from explosions, collisions, or faulty payload assembly.

Loading next visibility...
Identifier
42319, 1995-015JM
Orbit
SSO
Country
Flag of USUS
Related business
Manufacturer
Unknown
Mission
Spacecraft
Bus & Motor
Unknown
Mass
Unknown
Launch date (UTC)
1995-03-24 (31 years ago)
Launch vehicle
Unknown
Launch site
Air Force Western Test Range (AFWTR)
Object type
Payload
Rocket body
Debris
Shape & HBR
Unknown shape, 0.1 m
Radar Cross Section
Small (<0.1 m²)

Expand to show TLE details & history
Last TLE update: 3 days ago

TLE from 3 days ago
0 DMSP 5D-2 F13 DEB
1 42319U 95015JM  25347.55463974  .00008761  00000-0  30432-2 0  9999
2 42319  98.8826  23.4748 0026503 150.6514 209.6165 14.35544988551650
Epoch: 2025-12-13T13:18Z
TLE epoch observation values (Epoch: 2025-12-13T13:18:40.873Z)
Latitude
-0.00007°
Longitude
101.32427°
Altitude
792.679 km
Speed
7.449 km/s
True Right ascension
01h 33m 53s
True Declination
0° 00' 00"
Sunlit
Object was in full shadow at epoch
Visualization orbit readout
Latitude
Unknown
Longitude
Unknown
Altitude
Unknown
Speed
Unknown
Apparent Right ascension
Unknown
Apparent Declination
Unknown
Sunlit
N/A
Visualization observer readout
Local Sidereal Time
12:09:23
Azimuth
Unknown
Elevation
Unknown
Doppler factor
Unknown
Orbital elements
Apogee altitude
789.348 km
Perigee altitude
751.456 km
Semi-major axis
7,148.539 km
Eccentricity
0.00265
Inclination
98.8826°
RAAN
23.4748°
Arg. of periapsis
150.6514°
True anomaly
209.46684°
Mean anomaly
209.6165°
Eccentric anomaly
209.54163°
Mean motion
3.59102 °/min
Orbital period
100.25 mins
BSTAR
0.0030432
Loading maneuver chart data...
Computing Atmospheric mass density...

Documentation

Showing up to 5 results
|